| time (UTC) | temp F | wind direction | speed knots | gust knots | rain 1hr in | rain 24hr in | rain mn in | humidity % | barometer mb |
| 20260510094555 | 52 | 326 | 0.0 | 0.0 | 0.00 | 0.00 | 0.00 | 100 | 1010.8 |
| 20260510093039 | 52 | 326 | 0.9 | 0.0 | 0.00 | 0.00 | 0.00 | 100 | 1010.8 |
| 20260510091535 | 52 | 308 | 0.9 | 0.0 | 0.00 | 0.00 | 0.00 | 100 | 1010.7 |
| 20260510090041 | 52 | 360 | 0.0 | 0.0 | 0.00 | 0.00 | 0.00 | 100 | 1010.5 |
| 20260510084527 | 52 | 360 | 0.0 | 0.0 | 0.00 | 0.00 | 0.00 | 100 | 1010.6 |
| 20260510083026 | 52 | 360 | 0.0 | 0.0 | 0.00 | 0.00 | 0.00 | 100 | 1010.5 |
| 20260510081517 | 52 | 360 | 0.0 | 0.0 | 0.00 | 0.00 | 0.00 | 100 | 1010.4 |
| 20260510080024 | 53 | 15 | 0.0 | 0.0 | 0.00 | 0.00 | 0.00 | 100 | 1010.3 |
| 20260510074511 | 53 | 53 | 0.0 | 0.0 | 0.00 | 0.00 | 0.00 | 100 | 1009.9 |
| 20260510073004 | 53 | 53 | 0.0 | 0.0 | 0.00 | 0.00 | 0.00 | 100 | 1009.8 |
| 20260510071600 | 54 | 53 | 0.0 | 0.0 | 0.00 | 0.00 | 0.00 | 100 | 1009.7 |
| 20260510070057 | 54 | 53 | 0.0 | 0.0 | 0.00 | 0.00 | 0.00 | 100 | 1009.8 |
| 20260510064553 | 54 | 54 | 0.0 | 0.0 | 0.00 | 0.00 | 0.00 | 100 | 1009.6 |
| 20260510063050 | 55 | 54 | 0.0 | 0.0 | 0.00 | 0.00 | 0.00 | 100 | 1009.5 |
| 20260510061544 | 55 | 54 | 0.0 | 0.0 | 0.00 | 0.00 | 0.00 | 100 | 1009.5 |
| 20260510060039 | 55 | 54 | 0.0 | 0.0 | 0.00 | 0.00 | 0.00 | 100 | 1009.4 |
| 20260510054535 | 56 | 54 | 0.0 | 0.0 | 0.00 | 0.00 | 0.00 | 100 | 1009.8 |
| 20260510053029 | 56 | 54 | 0.0 | 0.0 | 0.00 | 0.00 | 0.00 | 100 | 1009.6 |
| 20260510051525 | 57 | 54 | 0.0 | 0.0 | 0.00 | 0.00 | 0.00 | 100 | 1009.6 |
| 20260510050021 | 57 | 54 | 0.0 | 0.0 | 0.00 | 0.00 | 0.00 | 100 | 1009.6 |
| 20260510044527 | 58 | 54 | 0.0 | 0.0 | 0.00 | 0.00 | 0.00 | 100 | 1009.7 |
| 20260510043012 | 58 | 54 | 0.0 | 0.0 | 0.00 | 0.00 | 0.00 | 100 | 1009.7 |
| 20260510041512 | 59 | 54 | 0.0 | 0.0 | 0.00 | 0.00 | 0.00 | 100 | 1009.7 |
| 20260510040004 | 59 | 54 | 0.0 | 0.0 | 0.00 | 0.00 | 0.00 | 100 | 1009.6 |
| 20260510034601 | 59 | 54 | 0.0 | 0.0 | 0.00 | 0.00 | 0.00 | 100 | 1009.6 |
| 20260510033132 | 60 | 54 | 0.0 | 0.0 | 0.00 | 0.00 | 0.00 | 100 | 1009.6 |
| 20260510031603 | 60 | 54 | 0.0 | 0.0 | 0.00 | 0.00 | 0.00 | 100 | 1009.5 |
| 20260510030048 | 60 | 54 | 0.0 | 0.0 | 0.00 | 0.00 | 0.00 | 100 | 1009.5 |
| 20260510024541 | 60 | 84 | 0.9 | 0.0 | 0.00 | 0.00 | 0.00 | 100 | 1009.4 |
| 20260510023037 | 61 | 63 | 0.9 | 0.0 | 0.00 | 0.00 | 0.00 | 100 | 1009.4 |
| 20260510021534 | 62 | 36 | 0.9 | 0.0 | 0.00 | 0.00 | 0.00 | 100 | 1009.2 |
| 20260510020029 | 62 | 73 | 0.9 | 0.0 | 0.00 | 0.00 | 0.00 | 100 | 1009.1 |
| 20260510014523 | 63 | 66 | 0.9 | 0.0 | 0.00 | 0.00 | 0.00 | 100 | 1009.2 |
| 20260510013021 | 63 | 52 | 0.9 | 0.0 | 0.00 | 0.00 | 0.00 | 100 | 1008.8 |
| 20260510011532 | 64 | 60 | 0.9 | 0.0 | 0.00 | 0.00 | 0.00 | 4 | 1008.5 |
| 20260510010011 | 64 | 68 | 1.7 | 0.0 | 0.00 | 0.00 | 0.00 | 9 | 1008.3 |
| 20260510004509 | 64 | 78 | 0.9 | 0.0 | 0.00 | 0.00 | 0.00 | 8 | 1008.2 |
| 20260510003004 | 65 | 78 | 0.0 | 0.0 | 0.00 | 0.00 | 0.00 | 20 | 1008.1 |
| 20260510001502 | 66 | 81 | 0.9 | 0.0 | 0.00 | 0.00 | 0.00 | 31 | 1007.9 |
| 20260510000108 | 66 | 104 | 0.0 | 0.0 | 0.00 | 0.00 | 0.00 | 34 | 1007.8 |
| 20260509234601 | 68 | 84 | 0.0 | 0.0 | 0.00 | 0.00 | 0.00 | 46 | 1007.7 |
| 20260509233055 | 68 | 84 | 0.9 | 0.0 | 0.00 | 0.00 | 0.00 | 51 | 1007.6 |
| 20260509231554 | 68 | 71 | 0.9 | 0.0 | 0.00 | 0.00 | 0.00 | 54 | 1007.4 |
| 20260509230054 | 69 | 74 | 1.7 | 0.0 | 0.00 | 0.00 | 0.00 | 58 | 1007.5 |
| 20260509224553 | 69 | 42 | 2.6 | 0.0 | 0.00 | 0.00 | 0.00 | 59 | 1007.3 |
| 20260509223101 | 70 | 48 | 2.6 | 0.0 | 0.00 | 0.00 | 0.00 | 60 | 1007.5 |
| 20260509221552 | 71 | 82 | 1.7 | 0.0 | 0.00 | 0.00 | 0.00 | 61 | 1007.5 |
| 20260509220051 | 72 | 138 | 2.6 | 0.0 | 0.00 | 0.00 | 0.00 | 61 | 1007.4 |
| 20260509214550 | 73 | 89 | 2.6 | 0.0 | 0.00 | 0.00 | 0.00 | 61 | 1007.3 |
| 20260509213049 | 71 | 238 | 1.7 | 0.0 | 0.00 | 0.00 | 0.00 | 59 | 1007.3 |
| 20260509211548 | 72 | 90 | 0.9 | 0.0 | 0.00 | 0.00 | 0.00 | 61 | 1007.3 |
| 20260509210053 | 72 | 127 | 1.7 | 0.0 | 0.00 | 0.00 | 0.00 | 61 | 1007.4 |
| 20260509204552 | 71 | 198 | 2.6 | 0.0 | 0.00 | 0.00 | 0.00 | 61 | 1007.2 |
| 20260509203045 | 70 | 219 | 1.7 | 0.0 | 0.00 | 0.00 | 0.00 | 61 | 1007.3 |
| 20260509201546 | 70 | 196 | 3.5 | 0.0 | 0.00 | 0.00 | 0.00 | 61 | 1007.4 |
| 20260509200057 | 71 | 163 | 2.6 | 0.0 | 0.00 | 0.00 | 0.00 | 60 | 1007.7 |
| 20260509194539 | 70 | 163 | 1.7 | 0.0 | 0.00 | 0.00 | 0.00 | 61 | 1008.1 |
| 20260509193035 | 70 | 150 | 1.7 | 0.0 | 0.00 | 0.00 | 0.00 | 61 | 1008.3 |
| 20260509191534 | 68 | 196 | 1.7 | 0.0 | 0.00 | 0.00 | 0.00 | 61 | 1008.4 |
| 20260509190035 | 68 | 77 | 0.9 | 0.0 | 0.00 | 0.00 | 0.00 | 60 | 1008.5 |
| 20260509184541 | 68 | 63 | 0.9 | 0.0 | 0.00 | 0.00 | 0.00 | 56 | 1008.6 |
| 20260509183031 | 68 | 228 | 0.9 | 0.0 | 0.00 | 0.00 | 0.00 | 62 | 1008.8 |
| 20260509181525 | 68 | 257 | 0.9 | 0.0 | 0.00 | 0.00 | 0.00 | 62 | 1008.9 |
| 20260509180023 | 68 | 236 | 1.7 | 0.0 | 0.00 | 0.00 | 0.00 | 61 | 1009.4 |
| 20260509174522 | 68 | 233 | 3.5 | 0.0 | 0.00 | 0.00 | 0.00 | 61 | 1009.4 |
| 20260509173021 | 68 | 184 | 1.7 | 0.0 | 0.00 | 0.00 | 0.00 | 61 | 1009.4 |
| 20260509171520 | 67 | 166 | 3.5 | 0.0 | 0.00 | 0.00 | 0.00 | 61 | 1009.6 |
| 20260509170017 | 67 | 214 | 1.7 | 0.0 | 0.00 | 0.00 | 0.00 | 61 | 1009.8 |
| 20260509164517 | 67 | 192 | 1.7 | 0.0 | 0.00 | 0.00 | 0.00 | 61 | 1009.8 |
| 20260509163016 | 67 | 245 | 2.6 | 0.0 | 0.00 | 0.00 | 0.00 | 61 | 1009.8 |
| 20260509161513 | 67 | 144 | 2.6 | 0.0 | 0.00 | 0.00 | 0.00 | 61 | 1009.8 |
| 20260509160011 | 66 | 190 | 2.6 | 0.0 | 0.00 | 0.00 | 0.00 | 60 | 1010.0 |
| 20260509154511 | 65 | 194 | 3.5 | 0.0 | 0.00 | 0.00 | 0.00 | 60 | 1010.1 |
| 20260509153005 | 64 | 159 | 2.6 | 0.0 | 0.00 | 0.00 | 0.00 | 57 | 1010.2 |
| 20260509151502 | 63 | 205 | 1.7 | 0.0 | 0.00 | 0.00 | 0.00 | 59 | 1010.3 |
| 20260509150100 | 63 | 262 | 1.7 | 0.0 | 0.00 | 0.00 | 0.00 | 58 | 1010.5 |
| 20260509144609 | 62 | 193 | 0.9 | 0.0 | 0.00 | 0.00 | 0.00 | 57 | 1010.8 |
| 20260509143118 | 62 | 207 | 1.7 | 0.0 | 0.00 | 0.00 | 0.00 | 57 | 1011.1 |
| 20260509141553 | 61 | 212 | 1.7 | 0.0 | 0.00 | 0.00 | 0.00 | 58 | 1010.9 |
| 20260509140100 | 61 | 238 | 1.7 | 0.0 | 0.00 | 0.00 | 0.00 | 58 | 1010.7 |
| 20260509134607 | 61 | 180 | 2.6 | 0.0 | 0.00 | 0.00 | 0.00 | 60 | 1010.8 |
| 20260509133049 | 61 | 171 | 3.5 | 0.0 | 0.00 | 0.00 | 0.00 | 61 | 1010.8 |
| 20260509131547 | 61 | 177 | 5.2 | 0.0 | 0.00 | 0.00 | 0.00 | 61 | 1010.9 |
| 20260509130055 | 61 | 205 | 1.7 | 0.0 | 0.00 | 0.00 | 0.00 | 61 | 1010.9 |
| 20260509124544 | 60 | 248 | 2.6 | 0.0 | 0.00 | 0.00 | 0.00 | 62 | 1010.6 |
| 20260509123045 | 60 | 217 | 0.9 | 0.0 | 0.00 | 0.00 | 0.00 | 62 | 1010.6 |
| 20260509121543 | 59 | 181 | 0.9 | 0.0 | 0.00 | 0.00 | 0.00 | 63 | 1010.7 |
| 20260509120034 | 59 | 226 | 2.6 | 0.0 | 0.00 | 0.00 | 0.00 | 63 | 1010.6 |
| 20260509114536 | 58 | 182 | 2.6 | 0.0 | 0.00 | 0.00 | 0.00 | 63 | 1010.6 |
| 20260509113035 | 58 | 178 | 1.7 | 0.0 | 0.00 | 0.00 | 0.00 | 63 | 1010.5 |
| 20260509111528 | 58 | 163 | 0.9 | 0.0 | 0.00 | 0.00 | 0.00 | 63 | 1010.4 |
| 20260509110027 | 58 | 179 | 0.9 | 0.0 | 0.00 | 0.00 | 0.00 | 63 | 1010.4 |
| 20260509104536 | 58 | 159 | 0.0 | 0.0 | 0.00 | 0.00 | 0.00 | 63 | 1010.2 |
| 20260509103022 | 58 | 176 | 0.0 | 0.0 | 0.00 | 0.00 | 0.00 | 63 | 1010.0 |
| 20260509101531 | 58 | 174 | 0.0 | 0.0 | 0.00 | 0.00 | 0.00 | 62 | 1010.1 |
| 20260509100024 | 58 | 174 | 0.0 | 0.0 | 0.00 | 0.00 | 0.00 | 62 | 1010.0 |